Torna al catalogo

EOS-4

AttivoScienzaSSO
NORAD 51656·PAYLOAD·🇮🇳 India

Lanciato Feb 14, 2022 da Satish Dhawan Space Centre

Loading…

Prossimi Passaggi (prossime 24 ore)

TLE

AggiornatoSource: Space-Track

Epoca: Sep 14, 2026, 14:19 UTC

1 51656U 22013A   26257.59692233  .00001157  00000-0  69754-4 0  9991
2 51656  97.5146 262.8957 0001892  85.2430 274.9017 15.12723614253000

Traccia EOS-4 in tempo reale con AllMySat

Download on the App Store